Terminal Aerodrome Forecast
Issued by NWS Milwaukee/Sullivan, WI

Home | Current Version | Previous Version | Text Only | Print | Product List | Glossary On
Versions: 1 2 3 4 5 6 7 8 9 10 11 12 13 14 15 16 17 18 19 20 21 22 23 24 25 26 27 28 29 30 31 32 33 34 35 36 37 38 39 40 41 42 43 44 45 46 47 48 49 50
000
FTUS43 KMKX 180755 AAA
TAFMKE
TAF AMD
KMKE 180755Z 1808/1912 01011KT P6SM BKN008
      TEMPO 1808/1809 SCT008 BKN018
     FM181300 05010KT P6SM BKN008
     FM181800 08008KT P6SM BKN015
     FM182200 08007KT P6SM SCT018
     FM190500 12005KT P6SM SKC=

USA.gov is the U.S. government's official web portal to all federal, state and local government web resources and services.